Flag Weather past 2 weeks in Wichita Falls, Texas, U.S.A.

Now
53 °F

Clear.


Feels Like: 51 °F
Forecast: 41 / 64 °F
Wind: 8 mph from North

Location: Wichita Falls - Sheppard Air Force Base

Current Time: Oct 31, 2014 at 2:23:10 AM

Latest Report: Oct 31, 2014 at 1:52 AM


Visibility: 10 mi

Pressure: 30.22 "Hg

Humidity: 55%

Dew point: 37 °F

Location of Wichita FallsLocation

Historic Weather in Wichita Falls — Graph

°F

Wichita Falls temperature yesterday

Maximum temperature yesterday: 79 °F (at 3:52 PM)
Minimum temperature yesterday: 51 °F (at 6:52 AM)
Average temperature yesterday: 63 °F

Past Weeks' High & Low Weather Summary

 TemperatureHumidityPressure
High91 °F (Oct 25, 3:52 PM)97% (Oct 20, 7:52 AM)30.24 "Hg (Oct 20, 7:52 AM)
Low44 °F (Oct 29, 6:52 AM)22% (Oct 16, 3:52 PM)29.66 "Hg (Oct 27, 3:52 PM)
Average68 °F59%29.99 "Hg
* Reported Oct 16 12:52 AM — Oct 31 12:52 AM, Wichita Falls, Weather by CustomWeather, © 2014

Note: Actual official high and low records may vary slightly from our data, if they occured in-between our weather recording intervals... More about our weather records

Advertising

Wichita Falls weather history for previous 24 hours

 ConditionsComfort  
Time TempWeatherWind HumidityBarometerVisibility
12:52 AM
Oct 31
53 °FClear.12 mph56%30.22 "Hg10 mi
11:52 PM
Oct 30
56 °FClear.9 mph49%30.21 "Hg10 mi
10:52 PM57 °FClear.8 mph47%30.19 "Hg10 mi
9:52 PM59 °FClear.7 mph44%30.17 "Hg10 mi
8:52 PM61 °FClear.10 mph41%30.15 "Hg10 mi
7:52 PM63 °FClear.10 mph37%30.13 "Hg10 mi
6:52 PM69 °FSunny.10 mph29%30.11 "Hg10 mi
5:52 PM77 °FSunny.18 mph26%30.08 "Hg10 mi
4:52 PM79 °FSunny.13 mph39%30.05 "Hg10 mi
3:52 PM79 °FPassing clouds.17 mph44%30.05 "Hg10 mi
2:52 PM77 °FBroken clouds.8 mph50%30.06 "Hg10 mi
1:52 PM75 °FMostly cloudy.7 mph54%30.08 "Hg10 mi
12:52 PM76 °FPartly sunny.7 mph52%30.09 "Hg10 mi
11:52 AM73 °FPassing clouds.10 mph51%30.11 "Hg10 mi
10:52 AM68 °FSunny.14 mph53%30.12 "Hg10 mi
9:52 AM62 °FSunny.9 mph58%30.12 "Hg10 mi
8:52 AM56 °FSunny.5 mph67%30.12 "Hg10 mi
7:52 AM51 °FClear.6 mph74%30.10 "Hg10 mi
6:52 AM51 °FClear.7 mph71%30.08 "Hg10 mi
5:52 AM52 °FClear.8 mph69%30.08 "Hg10 mi
4:52 AM54 °FClear.9 mph64%30.07 "Hg10 mi
3:52 AM55 °FClear.13 mph62%30.08 "Hg10 mi
2:52 AM54 °FClear.12 mph64%30.08 "Hg10 mi
Weather by CustomWeather, © 2014

See weather overviewHow to use our weather pages